DW7199 Weather Reports


Display with metric or nautical units.
time (UTC)temp
F
wind
direction
speed
MPH
gust
MPH
rain 1hr
in
rain 24hr
in
rain mn
in
humidity
%
barometer
mb
20260906124509 74 142 0.0 0.0 0.00 0.00 0.00 95 1012.2
20260906123010 74 142 0.0 0.0 0.00 0.00 0.00 95 1012.2
20260906121508 73 142 0.0 0.0 0.00 0.00 0.00 94 1012.0
20260906120005 73 106 0.0 0.0 0.00 0.00 0.00 93 1011.8
20260906114501 73 106 0.0 0.0 0.00 0.00 0.00 93 1011.4
20260906113105 73 84 0.0 0.0 0.00 0.00 0.00 93 1011.3
20260906111558 73 31 0.0 0.0 0.00 0.00 0.00 92 1011.1
20260906110055 74 31 0.0 0.0 0.00 0.00 0.00 92 1010.9
20260906104613 74 31 0.0 0.0 0.00 0.00 0.00 93 1010.9
20260906103054 74 31 0.0 0.0 0.00 0.00 0.00 92 1010.8
20260906101554 75 31 0.0 0.0 0.00 0.00 0.00 93 1010.8
20260906100053 75 86 0.0 1.0 0.00 0.00 0.00 92 1010.9
20260906094631 75 115 0.0 0.0 0.00 0.00 0.00 93 1010.8
20260906093102 75 114 0.0 0.0 0.00 0.00 0.00 92 1010.8
20260906091551 75 114 0.0 0.0 0.00 0.00 0.00 93 1010.8
20260906090050 75 27 0.0 1.0 0.00 0.00 0.00 94 1010.6
20260906084550 75 18 0.0 1.0 0.00 0.00 0.00 94 1010.7
20260906083052 74 354 0.0 0.0 0.00 0.00 0.00 93 1010.6
20260906081554 74 121 0.0 0.0 0.00 0.00 0.00 92 1010.4
20260906080052 74 121 0.0 0.0 0.00 0.00 0.00 91 1010.4
20260906074548 74 121 0.0 0.0 0.00 0.00 0.00 92 1010.3
20260906073046 75 121 0.0 0.0 0.00 0.00 0.00 91 1010.3
20260906071545 75 121 0.0 0.0 0.00 0.00 0.00 91 1010.2
20260906070043 75 121 0.0 0.0 0.00 0.00 0.00 91 1010.2
20260906064542 75 121 0.0 0.0 0.00 0.00 0.00 91 1010.2
20260906063041 75 121 0.0 0.0 0.00 0.00 0.00 91 1010.3
20260906061541 75 121 0.0 0.0 0.00 0.00 0.00 91 1010.5
20260906060038 75 121 0.0 0.0 0.00 0.00 0.00 91 1010.7
20260906054537 76 121 0.0 0.0 0.00 0.00 0.00 89 1010.8
20260906053036 76 121 0.0 0.0 0.00 0.00 0.00 90 1010.8
20260906051533 76 121 0.0 0.0 0.00 0.00 0.00 89 1010.7
20260906050033 76 121 0.0 0.0 0.00 0.00 0.00 88 1010.6
20260906044534 77 121 0.0 0.0 0.00 0.00 0.00 88 1010.6
20260906043031 77 121 0.0 0.0 0.00 0.00 0.00 88 1010.5
20260906041530 77 121 0.0 0.0 0.00 0.00 0.00 88 1010.6
20260906040034 77 121 0.0 0.0 0.00 0.00 0.00 87 1010.5
20260906034531 78 121 0.0 0.0 0.00 0.00 0.00 87 1010.5
20260906033029 79 121 0.0 0.0 0.00 0.00 0.00 85 1010.5
20260906031543 79 121 0.0 0.0 0.00 0.00 0.00 84 1010.6
20260906030028 79 121 0.0 0.0 0.00 0.00 0.00 85 1010.5
20260906024528 80 121 0.0 0.0 0.00 0.00 0.00 82 1010.5
20260906023028 81 121 0.0 0.0 0.00 0.00 0.00 83 1010.3
20260906021527 81 121 0.0 0.0 0.00 0.00 0.00 82 1010.1
20260906020031 82 121 0.0 0.0 0.00 0.00 0.00 80 1010.0
20260906014530 83 121 0.0 0.0 0.00 0.00 0.00 79 1009.8
20260906013025 85 121 0.0 0.0 0.00 0.00 0.00 75 1009.7
20260906011525 86 121 0.0 0.0 0.00 0.00 0.00 72 1009.5
20260906010024 88 121 0.0 0.0 0.00 0.00 0.00 69 1009.4
20260906004524 89 121 0.0 0.0 0.00 0.00 0.00 67 1009.3
20260906003026 92 121 0.0 0.0 0.00 0.00 0.00 63 1009.3
20260906001523 94 121 0.0 0.0 0.00 0.00 0.00 61 1009.3
20260906000023 97 121 0.0 0.0 0.00 0.00 0.00 59 1009.3
20260905234522 99 178 0.0 0.0 0.00 0.00 0.00 58 1009.2
20260905233025 99 127 0.0 0.0 0.00 0.00 0.00 49 1009.4
20260905231520 99 127 0.0 2.0 0.00 0.00 0.00 47 1009.5
20260905230019 99 163 0.0 2.0 0.00 0.00 0.00 46 1009.3
20260905224518 100 109 0.0 4.0 0.00 0.00 0.00 45 1009.5
20260905223031 100 145 1.0 3.0 0.00 0.00 0.00 45 1009.6
20260905221534 101 141 1.0 4.0 0.00 0.00 0.00 44 1009.6
20260905220016 101 185 1.0 3.0 0.00 0.00 0.00 43 1009.5
20260905214515 100 129 0.0 4.0 0.00 0.00 0.00 44 1009.6
20260905213015 100 104 1.0 3.0 0.00 0.00 0.00 45 1009.8
20260905211533 102 118 1.0 8.0 0.00 0.00 0.00 42 1009.7
20260905210012 103 122 3.0 13.0 0.00 0.00 0.00 41 1009.8
20260905204511 102 14 0.0 3.0 0.00 0.00 0.00 39 1009.9
20260905203009 102 350 1.0 6.0 0.00 0.00 0.00 41 1010.1
20260905201507 102 8 4.0 9.0 0.00 0.00 0.00 41 1010.4
20260905200004 102 15 2.0 10.0 0.00 0.00 0.00 41 1010.6
20260905194502 101 13 4.0 6.0 0.00 0.00 0.00 41 1010.9
20260905193100 101 26 3.0 7.0 0.00 0.00 0.00 43 1011.0
20260905191557 101 11 2.0 7.0 0.00 0.00 0.00 41 1011.2
20260905190056 101 354 3.0 11.0 0.00 0.00 0.00 43 1011.4
20260905184603 100 346 1.0 6.0 0.00 0.00 0.00 42 1011.5
20260905183054 101 8 3.0 8.0 0.00 0.00 0.00 41 1011.7
20260905181551 100 15 3.0 9.0 0.00 0.00 0.00 43 1011.7
20260905180056 100 305 1.0 9.0 0.00 0.00 0.00 44 1011.9
20260905174556 100 11 3.0 10.0 0.00 0.00 0.00 44 1012.1
20260905173049 100 297 2.0 9.0 0.00 0.00 0.00 45 1012.2
20260905171559 99 71 2.0 7.0 0.00 0.00 0.00 47 1012.3
20260905170050 99 23 3.0 6.0 0.00 0.00 0.00 48 1012.6
20260905164547 99 328 2.0 5.0 0.00 0.00 0.00 50 1012.7
20260905163039 97 341 2.0 7.0 0.00 0.00 0.00 50 1012.9
20260905161541 97 58 3.0 6.0 0.00 0.00 0.00 50 1013.1
20260905160044 96 294 1.0 5.0 0.00 0.00 0.00 56 1013.1
20260905154548 95 342 2.0 6.0 0.00 0.00 0.00 58 1013.2
20260905153029 94 237 0.0 3.0 0.00 0.00 0.00 59 1013.2
20260905151529 93 325 1.0 3.0 0.00 0.00 0.00 63 1013.2
20260905150021 91 266 1.0 3.0 0.00 0.00 0.00 67 1013.3
20260905144528 89 279 0.0 3.0 0.00 0.00 0.00 70 1013.3
20260905143013 86 305 1.0 3.0 0.00 0.00 0.00 75 1013.2
20260905141509 84 60 0.0 0.0 0.00 0.00 0.00 81 1013.2
20260905140005 81 25 0.0 0.0 0.00 0.00 0.00 88 1013.1
20260905134611 78 147 0.0 0.0 0.00 0.00 0.00 93 1013.1
20260905133058 76 147 0.0 0.0 0.00 0.00 0.00 96 1013.0
20260905131602 75 147 0.0 0.0 0.00 0.00 0.00 96 1012.9
20260905130057 75 147 0.0 0.0 0.00 0.00 0.00 96 1013.0